Find Starlink 1716

NORAD ID: 46672 Int'l Des: 2020-073 Owner: SPXS Country: US Constellation: starlink operational
LEOCIRCULAR

リアルタイム位置

3D地球を読み込み中...

Starlink 1716について

説明を読み込み中...

次回通過

Passes for default location (London). Set your location on the main map for personalized predictions.

高度履歴

Loading altitude history...

軌道要素

1 46672U 20073C 26122.16670139 .00068533 00000-0 41676-3 0 9995
2 46672 53.0396 296.5625 0004441 192.2823 328.2540 15.76856328 5963
Epoch: May 2, 2026 • Age: 10 hours

現在のステータス

高度 346.2 km
速度 7.71 km/s
衛星直下点 53.00°N, 44.78°W
打ち上げ日 Oct 18, 2020
運用期間 5.5 years
タイプ internet

技術仕様

分類 Payload
質量 260.00 kg
乾燥質量 248.00 kg
総質量 260.00 kg
長さ 0.20 m
直径 2.80 m
スパン 9.00 m
形状 Box + pan
製造者 SPXS
バスタイプ Starlink
フェーズステータス In Orbit
所有者/国 SPXS/US

Most Searched